Weather History for 11813 - December, 2013

Change the Weather History Date:

Thursday, December 12, 2013

  Actual Average Record
Temperature  
Mean Temperature 32 °F -  
Max Temperature 33 °F - - ()
Min Temperature 31 °F - - ()
Degree Days  
Heating Degree Days 33    
Moisture  
Dew Point 30 °F    
Average Humidity 87    
Maximum Humidity 95    
Minimum Humidity 70    
Precipitation  
Precipitation 0.00 in - - ()
Sea Level Pressure  
Sea Level Pressure 30.55 in    
Wind  
Wind Speed 2 mph ()    
Max Wind Speed 4 mph    
Max Gust Speed -    
T = Trace of Precipitation, MM = Missing Value Source: Averaged Metar Reports

Daily Weather History Graph

Daily Weather History Graph

Search for Another Location

Airport or City:

Trip Planner

Search our weather history database for the weather conditions in past years. The results will help you decide how hot, cold, wet, or windy it might be!

Date:

Astronomy

Dec. 12, 2013 Rise Set
Actual Time 7:32 AM CET 3:57 PM CET
Civil Twilight 6:56 AM CET 4:34 PM CET
Nautical Twilight 6:16 AM CET 5:13 PM CET
Astronomical Twilight 5:38 AM CET 5:51 PM CET
Moon 1:10 PM CET (12/12) 2:19 AM CET (12/12)
Length of Visible Light 9h 37m
Length of Day
8h 24m
Waxing Gibbous, 78% of the Moon is Illuminated
Dec 12
Waxing Gibbous
Dec 17
Full
Dec 25
Last Quarter
Jan 1
New
Jan 8
First Quarter

Hourly Weather History & Observations

Time (CET) Temp. Dew Point Humidity Pressure Visibility Wind Dir Wind Speed Gust Speed Precip Events Conditions
12:00 AM 33 °F 27 °F 70% 30.62 in - 4.5 mph - -  
1:00 AM 33 °F 28 °F 73% 30.62 in - 2.2 mph - -  
2:00 AM 33 °F 28 °F 74% 30.61 in - Calm Calm - -  
3:00 AM 33 °F 30 °F 83% 30.60 in - 2.2 mph - -  
4:00 AM 33 °F 30 °F 83% 30.60 in - 2.2 mph - -  
5:00 AM 33 °F 30 °F 86% 30.59 in - 2.2 mph - -  
6:00 AM 33 °F 30 °F 85% 30.59 in - 2.2 mph - -  
7:00 AM 33 °F 31 °F 88% 30.58 in - 2.2 mph - -  
8:00 AM 32 °F 29 °F 86% 30.57 in - 4.5 mph - -  
9:00 AM 32 °F 30 °F 88% 30.58 in - Calm Calm - -  
10:00 AM 32 °F 30 °F 91% 30.58 in - Calm Calm - -  
11:00 AM 33 °F 31 °F 89% 30.57 in - Calm Calm - -  
12:00 PM 33 °F 31 °F 88% 30.56 in - 2.2 mph - -  
1:00 PM 33 °F 31 °F 87% 30.55 in - 2.2 mph - -  
2:00 PM 33 °F 31 °F 89% 30.53 in - 2.2 mph - -  
3:00 PM 33 °F 31 °F 89% 30.51 in - 2.2 mph - -  
4:00 PM 32 °F 31 °F 94% 30.51 in - 2.2 mph - -  
5:00 PM 32 °F 31 °F 92% 30.51 in - 2.2 mph - -  
6:00 PM 32 °F 30 °F 91% 30.51 in - 2.2 mph - -  
7:00 PM 32 °F 31 °F 92% 30.49 in - Calm Calm - -  
8:00 PM 32 °F 30 °F 91% 30.49 in - Calm Calm - -  
9:00 PM 32 °F 30 °F 91% 30.48 in - 2.2 mph - -  
10:00 PM 31 °F 30 °F 95% 30.48 in - 2.2 mph - -  
11:00 PM 31 °F 30 °F 95% 30.47 in - Calm Calm - -